Station Historical Data
Daily Summary for July 19, 2017 Units:  English    Metric   Both
« Previous Day
Next Day »
Daily Weekly Monthly Yearly Custom
  High: Low: Average:
Temperature: 85.2 °F 61.5 °F 74.1 °F
Dew Point: 71.5 °F 56.8 °F 65 °F
Humidity: 88% 61% 74%
Wind Speed: 11.0mph 0.0mph 2.9mph
Wind Gust: 16.0mph - -
Wind- - SW
Pressure: 30.05 in 29.97 in -
Precipitation: 0.00 in    
Historical Graphs
 
 
Tabular Data for July 19, 2017
Time Temperature Dew Point Pressure Wind Wind Speed Wind Gust Humidity Rainfall Rate (Hourly)
00:04 65.9 °F 57.7 °F 30.05 in Calm     75% 0.00 in
00:09 65.7 °F 57.6 °F 30.05 in Calm     75% 0.00 in
00:14 65.3 °F 57.5 °F 30.05 in Calm     76% 0.00 in
00:19 65.0 °F 57.6 °F 30.05 in Calm     77% 0.00 in
00:24 64.9 °F 57.5 °F 30.05 in Calm     77% 0.00 in
00:29 64.9 °F 57.5 °F 30.05 in Calm     77% 0.00 in
00:34 64.5 °F 57.5 °F 30.05 in Calm     78% 0.00 in
00:39 64.3 °F 57.6 °F 30.05 in Calm     79% 0.00 in
00:44 64.0 °F 57.4 °F 30.05 in Calm     79% 0.00 in
00:49 63.9 °F 57.6 °F 30.05 in Calm     80% 0.00 in
00:54 63.8 °F 57.9 °F 30.05 in Calm     81% 0.00 in
00:59 63.7 °F 57.8 °F 30.05 in Calm     81% 0.00 in
01:04 63.8 °F 57.9 °F 30.05 in Calm     81% 0.00 in
01:09 63.9 °F 58.0 °F 30.05 in Calm   3.0 mph 81% 0.00 in
01:14 64.0 °F 57.7 °F 30.05 in Calm   3.0 mph 80% 0.00 in
01:19 64.0 °F 57.7 °F 30.05 in Calm     80% 0.00 in
01:24 64.0 °F 57.7 °F 30.05 in Calm     80% 0.00 in
01:29 64.0 °F 57.7 °F 30.05 in Calm     80% 0.00 in
01:34 63.8 °F 57.5 °F 30.05 in Calm     80% 0.00 in
01:39 63.7 °F 57.4 °F 30.05 in Calm     80% 0.00 in
01:44 63.5 °F 57.2 °F 30.05 in Calm     80% 0.00 in
01:49 63.4 °F 57.5 °F 30.05 in Calm     81% 0.00 in
01:54 63.3 °F 57.4 °F 30.05 in Calm   1.0 mph 81% 0.00 in
01:59 63.2 °F 57.3 °F 30.04 in Calm   1.0 mph 81% 0.00 in
02:04 63.2 °F 57.3 °F 30.05 in Calm     81% 0.00 in
02:09 63.0 °F 57.1 °F 30.04 in Calm     81% 0.00 in
02:14 62.9 °F 57.0 °F 30.04 in Calm     81% 0.00 in
02:19 62.9 °F 57.0 °F 30.04 in Calm     81% 0.00 in
02:24 62.9 °F 57.0 °F 30.04 in Calm     81% 0.00 in
02:29 62.7 °F 57.1 °F 30.03 in Calm     82% 0.00 in
02:34 62.6 °F 57.0 °F 30.03 in Calm     82% 0.00 in
02:39 62.6 °F 57.0 °F 30.03 in Calm   1.0 mph 82% 0.00 in
02:44 62.6 °F 57.0 °F 30.03 in Calm   2.0 mph 82% 0.00 in
02:49 62.8 °F 57.2 °F 30.03 in Calm     82% 0.00 in
02:54 62.7 °F 56.8 °F 30.03 in Calm     81% 0.00 in
02:59 62.7 °F 57.1 °F 30.03 in Calm     82% 0.00 in
03:04 62.7 °F 57.1 °F 30.03 in Calm     82% 0.00 in
03:09 62.6 °F 57.0 °F 30.03 in Calm     82% 0.00 in
03:14 62.5 °F 56.9 °F 30.03 in Calm     82% 0.00 in
03:19 62.4 °F 57.2 °F 30.03 in Calm     83% 0.00 in
03:24 62.4 °F 56.8 °F 30.02 in Calm     82% 0.00 in
03:29 62.3 °F 57.1 °F 30.02 in Calm     83% 0.00 in
03:34 62.2 °F 57.0 °F 30.02 in Calm     83% 0.00 in
03:39 62.2 °F 57.0 °F 30.03 in Calm     83% 0.00 in
03:44 62.2 °F 57.3 °F 30.03 in Calm     84% 0.00 in
03:49 62.2 °F 57.3 °F 30.02 in Calm     84% 0.00 in
03:54 62.1 °F 57.2 °F 30.03 in Calm     84% 0.00 in
03:59 62.1 °F 57.2 °F 30.03 in Calm     84% 0.00 in
04:04 62.3 °F 57.4 °F 30.03 in Calm     84% 0.00 in
04:09 62.0 °F 57.1 °F 30.02 in Calm     84% 0.00 in
04:14 61.9 °F 57.0 °F 30.02 in Calm     84% 0.00 in
04:19 61.7 °F 56.8 °F 30.03 in Calm     84% 0.00 in
04:24 61.7 °F 57.1 °F 30.03 in Calm     85% 0.00 in
04:29 61.9 °F 57.3 °F 30.03 in Calm     85% 0.00 in
04:34 62.0 °F 57.1 °F 30.03 in Calm     84% 0.00 in
04:39 61.7 °F 56.8 °F 30.03 in Calm     84% 0.00 in
04:44 61.7 °F 57.1 °F 30.03 in Calm     85% 0.00 in
04:49 61.6 °F 57.0 °F 30.03 in Calm     85% 0.00 in
04:54 61.7 °F 57.1 °F 30.03 in Calm     85% 0.00 in
04:59 61.8 °F 57.2 °F 30.03 in Calm     85% 0.00 in
05:04 61.8 °F 57.2 °F 30.03 in Calm     85% 0.00 in
05:09 61.6 °F 57.0 °F 30.03 in Calm     85% 0.00 in
05:14 61.5 °F 56.9 °F 30.03 in Calm     85% 0.00 in
05:19 61.5 °F 56.9 °F 30.03 in Calm     85% 0.00 in
05:24 61.6 °F 57.0 °F 30.03 in Calm     85% 0.00 in
05:29 61.7 °F 57.1 °F 30.03 in Calm   2.0 mph 85% 0.00 in
05:34 61.7 °F 57.1 °F 30.03 in Calm     85% 0.00 in
05:39 62.1 °F 57.5 °F 30.03 in Calm     85% 0.00 in
05:44 62.2 °F 57.3 °F 30.02 in Calm   3.0 mph 84% 0.00 in
05:49 62.4 °F 57.2 °F 30.02 in South 1.0 mph 3.0 mph 83% 0.00 in
05:54 62.4 °F 57.2 °F 30.03 in Calm   2.0 mph 83% 0.00 in
05:59 62.5 °F 57.3 °F 30.03 in Calm     83% 0.00 in
06:04 62.5 °F 57.3 °F 30.03 in Calm     83% 0.00 in
06:09 62.2 °F 57.0 °F 30.03 in Calm     83% 0.00 in
06:14 62.1 °F 57.2 °F 30.03 in Calm     84% 0.00 in
06:19 62.5 °F 57.3 °F 30.03 in Calm     83% 0.00 in
06:24 62.6 °F 57.4 °F 30.03 in Calm     83% 0.00 in
06:29 62.9 °F 57.7 °F 30.03 in South 2.0 mph 3.0 mph 83% 0.00 in
06:34 63.2 °F 57.6 °F 30.03 in South 1.0 mph 3.0 mph 82% 0.00 in
06:39 63.6 °F 57.7 °F 30.03 in South 1.0 mph 2.0 mph 81% 0.00 in
06:44 64.0 °F 58.1 °F 30.03 in South 1.0 mph 2.0 mph 81% 0.00 in
06:49 64.3 °F 58.0 °F 30.03 in South 1.0 mph 2.0 mph 80% 0.00 in
06:54 64.7 °F 58.4 °F 30.03 in Calm   2.0 mph 80% 0.00 in
06:59 65.1 °F 58.4 °F 30.03 in Calm     79% 0.00 in
07:04 65.6 °F 58.9 °F 30.03 in SSW 2.0 mph 3.0 mph 79% 0.00 in
07:09 65.9 °F 58.8 °F 30.03 in Calm   4.0 mph 78% 0.00 in
07:14 66.3 °F 58.9 °F 30.03 in South 2.0 mph 3.0 mph 77% 0.00 in
07:19 66.6 °F 59.2 °F 30.03 in Calm   4.0 mph 77% 0.00 in
07:24 67.0 °F 59.2 °F 30.04 in Calm   4.0 mph 76% 0.00 in
07:29 67.5 °F 59.3 °F 30.04 in SSW 1.0 mph 3.0 mph 75% 0.00 in
07:34 68.0 °F 59.8 °F 30.04 in Calm   4.0 mph 75% 0.00 in
07:39 68.3 °F 60.1 °F 30.04 in Calm   3.0 mph 75% 0.00 in
07:44 68.5 °F 59.9 °F 30.04 in SW 1.0 mph 3.0 mph 74% 0.00 in
07:49 68.6 °F 60.0 °F 30.04 in Calm   3.0 mph 74% 0.00 in
07:54 69.4 °F 60.8 °F 30.04 in SSW 1.0 mph 3.0 mph 74% 0.00 in
07:59 69.9 °F 60.8 °F 30.04 in SSW 1.0 mph 4.0 mph 73% 0.00 in
08:04 70.1 °F 60.7 °F 30.04 in SSW 1.0 mph 5.0 mph 72% 0.00 in
08:09 70.7 °F 61.2 °F 30.04 in SSW 1.0 mph 3.0 mph 72% 0.00 in
08:14 71.1 °F 61.2 °F 30.03 in SSW 1.0 mph 3.0 mph 71% 0.00 in
08:19 71.2 °F 61.3 °F 30.03 in South 2.0 mph 3.0 mph 71% 0.00 in
08:24 71.4 °F 61.5 °F 30.03 in SSE 1.0 mph 3.0 mph 71% 0.00 in
08:29 71.4 °F 61.5 °F 30.03 in Calm   3.0 mph 71% 0.00 in
08:34 71.5 °F 61.6 °F 30.03 in South 2.0 mph 2.0 mph 71% 0.00 in
08:39 71.7 °F 62.2 °F 30.03 in Calm   4.0 mph 72% 0.00 in
08:44 71.9 °F 62.0 °F 30.03 in SSW 1.0 mph 4.0 mph 71% 0.00 in
08:49 72.0 °F 62.1 °F 30.03 in SSW 1.0 mph 3.0 mph 71% 0.00 in
08:54 72.3 °F 62.8 °F 30.03 in Calm     72% 0.00 in
08:59 72.6 °F 62.7 °F 30.03 in Calm     71% 0.00 in
09:04 72.8 °F 62.4 °F 30.03 in Calm     70% 0.00 in
09:09 73.1 °F 62.7 °F 30.03 in Calm     70% 0.00 in
09:14 73.3 °F 62.9 °F 30.03 in SSW 1.0 mph 4.0 mph 70% 0.00 in
09:19 73.8 °F 63.4 °F 30.03 in Calm   3.0 mph 70% 0.00 in
09:24 75.0 °F 64.1 °F 30.03 in SW 2.0 mph 5.0 mph 69% 0.00 in
09:29 76.5 °F 64.7 °F 30.03 in SW 3.0 mph 6.0 mph 67% 0.00 in
09:34 77.3 °F 64.6 °F 30.03 in SSE 6.0 mph 7.0 mph 65% 0.00 in
09:39 78.1 °F 65.4 °F 30.03 in WSW 5.0 mph 6.0 mph 65% 0.00 in
09:44 78.9 °F 65.2 °F 30.03 in South 1.0 mph 5.0 mph 63% 0.00 in
09:49 79.1 °F 65.9 °F 30.03 in SW 3.0 mph 6.0 mph 64% 0.00 in
09:54 78.6 °F 65.8 °F 30.02 in SW 3.0 mph 6.0 mph 65% 0.00 in
09:59 79.0 °F 66.2 °F 30.02 in WSW 4.0 mph 7.0 mph 65% 0.00 in
10:04 80.0 °F 66.3 °F 30.02 in SW 3.0 mph 8.0 mph 63% 0.00 in
10:09 80.0 °F 66.3 °F 30.02 in SSW 2.0 mph 7.0 mph 63% 0.00 in
10:14 80.3 °F 66.1 °F 30.02 in SW 4.0 mph 7.0 mph 62% 0.00 in
10:19 80.9 °F 67.6 °F 30.02 in SW 4.0 mph 8.0 mph 64% 0.00 in
10:24 81.1 °F 66.8 °F 30.02 in SW 4.0 mph 8.0 mph 62% 0.00 in
10:29 81.4 °F 67.6 °F 30.02 in NW 4.0 mph 8.0 mph 63% 0.00 in
10:34 81.4 °F 66.7 °F 30.03 in SSW 6.0 mph 8.0 mph 61% 0.00 in
10:39 81.8 °F 67.0 °F 30.02 in WSW 3.0 mph 8.0 mph 61% 0.00 in
10:44 81.8 °F 67.5 °F 30.02 in SW 5.0 mph 10.0 mph 62% 0.00 in
10:49 82.5 °F 68.6 °F 30.02 in South 9.0 mph 10.0 mph 63% 0.00 in
10:54 82.3 °F 67.5 °F 30.02 in SW 5.0 mph 10.0 mph 61% 0.00 in
10:59 82.2 °F 67.9 °F 30.03 in SSW 4.0 mph 9.0 mph 62% 0.00 in
11:04 82.2 °F 67.9 °F 30.03 in WSW 6.0 mph 13.0 mph 62% 0.00 in
11:09 82.5 °F 68.2 °F 30.02 in WSW 8.0 mph 12.0 mph 62% 0.00 in
11:14 82.3 °F 68.4 °F 30.02 in WSW 5.0 mph 12.0 mph 63% 0.00 in
11:19 83.0 °F 68.6 °F 30.02 in WSW 5.0 mph 11.0 mph 62% 0.00 in
11:24 82.2 °F 68.3 °F 30.02 in WSW 5.0 mph 10.0 mph 63% 0.00 in
11:29 82.6 °F 68.7 °F 30.02 in WSW 5.0 mph 13.0 mph 63% 0.00 in
11:34 82.1 °F 68.7 °F 30.02 in WSW 6.0 mph 13.0 mph 64% 0.00 in
11:39 82.7 °F 69.3 °F 30.02 in WSW 6.0 mph 12.0 mph 64% 0.00 in
11:44 82.1 °F 68.7 °F 30.02 in SW 6.0 mph 13.0 mph 64% 0.00 in
11:49 82.2 °F 69.3 °F 30.02 in SW 5.0 mph 10.0 mph 65% 0.00 in
11:54 82.8 °F 68.9 °F 30.02 in WSW 5.0 mph 10.0 mph 63% 0.00 in
11:59 82.7 °F 69.3 °F 30.02 in WSW 5.0 mph 10.0 mph 64% 0.00 in
12:04 84.0 °F 70.5 °F 30.02 in SW 5.0 mph 10.0 mph 64% 0.00 in
12:09 83.9 °F 69.5 °F 30.02 in WSW 5.0 mph 11.0 mph 62% 0.00 in
12:14 83.3 °F 69.4 °F 30.02 in WSW 5.0 mph 11.0 mph 63% 0.00 in
12:19 82.9 °F 69.5 °F 30.02 in WSW 5.0 mph 11.0 mph 64% 0.00 in
12:24 82.1 °F 69.2 °F 30.02 in WSW 5.0 mph 11.0 mph 65% 0.00 in
12:29 81.8 °F 68.9 °F 30.02 in SW 6.0 mph 14.0 mph 65% 0.00 in
12:34 82.0 °F 69.1 °F 30.02 in SW 6.0 mph 14.0 mph 65% 0.00 in
12:39 81.5 °F 68.6 °F 30.02 in SSW 5.0 mph 11.0 mph 65% 0.00 in
12:44 81.6 °F 69.1 °F 30.03 in SW 5.0 mph 11.0 mph 66% 0.00 in
12:49 81.6 °F 69.1 °F 30.02 in WSW 2.0 mph 10.0 mph 66% 0.00 in
12:54 81.8 °F 69.3 °F 30.02 in SW 6.0 mph 9.0 mph 66% 0.00 in
12:59 82.1 °F 69.6 °F 30.02 in WSW 4.0 mph 10.0 mph 66% 0.00 in
13:04 82.7 °F 69.7 °F 30.02 in South 3.0 mph 10.0 mph 65% 0.00 in
13:09 82.7 °F 69.7 °F 30.02 in WSW 7.0 mph 13.0 mph 65% 0.00 in
13:14 82.6 °F 69.2 °F 30.02 in West 5.0 mph 12.0 mph 64% 0.00 in
13:19 82.2 °F 69.7 °F 30.02 in WSW 6.0 mph 12.0 mph 66% 0.00 in
13:24 81.6 °F 69.1 °F 30.02 in WSW 7.0 mph 12.0 mph 66% 0.00 in
13:29 81.8 °F 69.3 °F 30.02 in SW 6.0 mph 12.0 mph 66% 0.00 in
13:34 82.3 °F 69.8 °F 30.01 in SW 7.0 mph 11.0 mph 66% 0.00 in
13:39 82.7 °F 70.6 °F 30.02 in SW 4.0 mph 10.0 mph 67% 0.00 in
13:44 82.9 °F 70.8 °F 30.01 in West 4.0 mph 11.0 mph 67% 0.00 in
13:49 82.9 °F 70.4 °F 30.01 in SW 5.0 mph 11.0 mph 66% 0.00 in
13:54 82.8 °F 69.4 °F 30.01 in WSW 5.0 mph 11.0 mph 64% 0.00 in
13:59 82.2 °F 70.1 °F 30.01 in West 8.0 mph 11.0 mph 67% 0.00 in
14:04 82.4 °F 69.9 °F 30.01 in SW 8.0 mph 9.0 mph 66% 0.00 in
14:09 82.1 °F 69.2 °F 30.01 in WSW 4.0 mph 13.0 mph 65% 0.00 in
14:14 81.4 °F 69.4 °F 30.00 in WSW 6.0 mph 13.0 mph 67% 0.00 in
14:19 81.2 °F 69.6 °F 30.01 in SW 6.0 mph 11.0 mph 68% 0.00 in
14:24 81.4 °F 69.8 °F 30.00 in SW 6.0 mph 11.0 mph 68% 0.00 in
14:29 82.2 °F 70.1 °F 30.00 in West 5.0 mph 15.0 mph 67% 0.00 in
14:34 82.4 °F 69.9 °F 30.00 in West 4.0 mph 12.0 mph 66% 0.00 in
14:39 83.0 °F 70.5 °F 30.00 in WSW 8.0 mph 14.0 mph 66% 0.00 in
14:44 82.8 °F 70.7 °F 30.00 in WSW 5.0 mph 14.0 mph 67% 0.00 in
14:49 82.4 °F 69.9 °F 30.00 in WSW 6.0 mph 11.0 mph 66% 0.00 in
14:54 82.7 °F 71.1 °F 30.00 in WSW 6.0 mph 11.0 mph 68% 0.00 in
14:59 82.8 °F 70.3 °F 29.99 in WSW 6.0 mph 12.0 mph 66% 0.00 in
15:04 83.6 °F 71.0 °F 29.99 in WSW 6.0 mph 13.0 mph 66% 0.00 in
15:09 84.1 °F 71.1 °F 29.99 in SW 7.0 mph 13.0 mph 65% 0.00 in
15:14 84.2 °F 71.2 °F 29.99 in SW 6.0 mph 12.0 mph 65% 0.00 in
15:19 85.0 °F 71.5 °F 29.99 in SW 9.0 mph 10.0 mph 64% 0.00 in
15:24 84.8 °F 70.8 °F 29.99 in WSW 4.0 mph 15.0 mph 63% 0.00 in
15:29 84.5 °F 70.0 °F 29.99 in SW 9.0 mph 13.0 mph 62% 0.00 in
15:34 84.5 °F 70.0 °F 29.98 in SW 11.0 mph 13.0 mph 62% 0.00 in
15:39 84.4 °F 69.5 °F 29.98 in SSW 7.0 mph 14.0 mph 61% 0.00 in
15:44 84.4 °F 70.4 °F 29.98 in WSW 7.0 mph 14.0 mph 63% 0.00 in
15:49 84.4 °F 70.4 °F 29.98 in WSW 7.0 mph 14.0 mph 63% 0.00 in
15:54 85.0 °F 71.0 °F 29.98 in SW 6.0 mph 14.0 mph 63% 0.00 in
15:59 84.6 °F 70.6 °F 29.98 in SW 6.0 mph 13.0 mph 63% 0.00 in
16:04 85.2 °F 70.2 °F 29.98 in WSW 4.0 mph 11.0 mph 61% 0.00 in
16:09 84.7 °F 69.8 °F 29.98 in WSW 8.0 mph 10.0 mph 61% 0.00 in
16:14 84.2 °F 69.8 °F 29.98 in West 6.0 mph 13.0 mph 62% 0.00 in
16:19 84.1 °F 69.2 °F 29.98 in WSW 7.0 mph 15.0 mph 61% 0.00 in
16:24 84.3 °F 70.3 °F 29.98 in WSW 7.0 mph 15.0 mph 63% 0.00 in
16:29 84.3 °F 69.9 °F 29.98 in WSW 5.0 mph 12.0 mph 62% 0.00 in
16:34 83.8 °F 69.9 °F 29.98 in SW 4.0 mph 11.0 mph 63% 0.00 in
16:39 83.4 °F 69.9 °F 29.99 in WSW 5.0 mph 12.0 mph 64% 0.00 in
16:44 83.3 °F 69.4 °F 29.99 in WSW 5.0 mph 12.0 mph 63% 0.00 in
16:49 82.5 °F 69.5 °F 30.00 in WSW 6.0 mph 12.0 mph 65% 0.00 in
16:54 82.6 °F 70.1 °F 30.00 in WSW 5.0 mph 12.0 mph 66% 0.00 in
16:59 82.2 °F 69.7 °F 30.00 in SW 5.0 mph 12.0 mph 66% 0.00 in
17:04 82.3 °F 70.2 °F 30.00 in West 3.0 mph 8.0 mph 67% 0.00 in
17:09 83.0 °F 70.5 °F 29.98 in SSW 5.0 mph 10.0 mph 66% 0.00 in
17:14 83.4 °F 70.4 °F 29.99 in WSW 5.0 mph 10.0 mph 65% 0.00 in
17:19 83.8 °F 71.2 °F 29.98 in WSW 5.0 mph 12.0 mph 66% 0.00 in
17:24 83.9 °F 70.4 °F 29.98 in WSW 5.0 mph 10.0 mph 64% 0.00 in
17:29 83.6 °F 70.1 °F 29.97 in SSW 5.0 mph 12.0 mph 64% 0.00 in
17:34 83.3 °F 70.3 °F 29.97 in WSW 9.0 mph 13.0 mph 65% 0.00 in
17:39 83.0 °F 70.5 °F 29.97 in SW 5.0 mph 15.0 mph 66% 0.00 in
17:44 82.7 °F 69.7 °F 29.97 in WSW 7.0 mph 15.0 mph 65% 0.00 in
17:49 82.3 °F 69.4 °F 29.97 in SW 7.0 mph 16.0 mph 65% 0.00 in
17:54 82.4 °F 69.9 °F 29.97 in WSW 7.0 mph 14.0 mph 66% 0.00 in
17:59 82.7 °F 69.7 °F 29.98 in WSW 7.0 mph 13.0 mph 65% 0.00 in
18:04 82.6 °F 70.1 °F 29.98 in West 6.0 mph 11.0 mph 66% 0.00 in
18:09 82.4 °F 69.9 °F 29.98 in WSW 6.0 mph 13.0 mph 66% 0.00 in
18:14 82.6 °F 70.5 °F 29.98 in WSW 6.0 mph 13.0 mph 67% 0.00 in
18:19 82.3 °F 70.2 °F 29.97 in WSW 6.0 mph 12.0 mph 67% 0.00 in
18:24 81.8 °F 70.2 °F 29.97 in WSW 6.0 mph 14.0 mph 68% 0.00 in
18:29 81.5 °F 70.3 °F 29.97 in West 4.0 mph 12.0 mph 69% 0.00 in
18:34 81.3 °F 70.2 °F 29.97 in WSW 6.0 mph 12.0 mph 69% 0.00 in
18:39 81.1 °F 70.4 °F 29.97 in WSW 5.0 mph 11.0 mph 70% 0.00 in
18:44 80.8 °F 70.1 °F 29.97 in WSW 6.0 mph 12.0 mph 70% 0.00 in
18:49 80.3 °F 70.0 °F 29.98 in WSW 6.0 mph 14.0 mph 71% 0.00 in
18:54 80.1 °F 69.8 °F 29.98 in WSW 4.0 mph 12.0 mph 71% 0.00 in
18:59 80.0 °F 70.2 °F 29.98 in SSW 5.0 mph 9.0 mph 72% 0.00 in
19:04 79.6 °F 70.2 °F 29.98 in WSW 6.0 mph 13.0 mph 73% 0.00 in
19:09 79.3 °F 69.9 °F 29.98 in SW 7.0 mph 13.0 mph 73% 0.00 in
19:14 79.2 °F 70.2 °F 29.97 in WSW 6.0 mph 12.0 mph 74% 0.00 in
19:19 78.9 °F 69.9 °F 29.97 in West 4.0 mph 16.0 mph 74% 0.00 in
19:24 78.8 °F 69.8 °F 29.97 in WSW 7.0 mph 9.0 mph 74% 0.00 in
19:29 78.7 °F 69.7 °F 29.98 in SW 3.0 mph 11.0 mph 74% 0.00 in
19:34 78.7 °F 69.7 °F 29.98 in WSW 5.0 mph 10.0 mph 74% 0.00 in
19:39 78.4 °F 69.8 °F 29.98 in WSW 5.0 mph 11.0 mph 75% 0.00 in
19:44 78.3 °F 69.7 °F 29.98 in WSW 5.0 mph 12.0 mph 75% 0.00 in
19:49 78.0 °F 69.4 °F 29.98 in WSW 5.0 mph 12.0 mph 75% 0.00 in
19:54 77.8 °F 69.6 °F 29.98 in WSW 1.0 mph 9.0 mph 76% 0.00 in
19:59 77.7 °F 69.5 °F 29.99 in WSW 5.0 mph 10.0 mph 76% 0.00 in
20:04 77.4 °F 68.9 °F 29.99 in WSW 5.0 mph 11.0 mph 75% 0.00 in
20:09 77.2 °F 68.7 °F 29.99 in West 4.0 mph 9.0 mph 75% 0.00 in
20:14 77.1 °F 68.9 °F 29.99 in SW 5.0 mph 7.0 mph 76% 0.00 in
20:19 77.0 °F 68.9 °F 29.99 in West 4.0 mph 8.0 mph 76% 0.00 in
20:24 76.8 °F 68.7 °F 29.99 in WSW 4.0 mph 5.0 mph 76% 0.00 in
20:29 76.7 °F 68.9 °F 29.99 in SW 2.0 mph 7.0 mph 77% 0.00 in
20:34 76.5 °F 68.7 °F 29.99 in SW 4.0 mph 9.0 mph 77% 0.00 in
20:39 76.3 °F 68.9 °F 29.99 in WSW 4.0 mph 9.0 mph 78% 0.00 in
20:44 76.1 °F 69.1 °F 29.99 in WSW 4.0 mph 9.0 mph 79% 0.00 in
20:49 76.0 °F 69.0 °F 29.99 in WSW 3.0 mph 7.0 mph 79% 0.00 in
20:54 75.8 °F 69.2 °F 29.99 in WSW 2.0 mph 5.0 mph 80% 0.00 in
20:59 75.7 °F 69.1 °F 29.99 in West 3.0 mph 8.0 mph 80% 0.00 in
21:04 75.6 °F 69.4 °F 29.99 in WSW 4.0 mph 9.0 mph 81% 0.00 in
21:09 75.4 °F 69.2 °F 29.99 in SW 4.0 mph 9.0 mph 81% 0.00 in
21:14 75.4 °F 69.2 °F 29.98 in WSW 3.0 mph 8.0 mph 81% 0.00 in
21:19 75.3 °F 69.4 °F 29.99 in WSW 2.0 mph 8.0 mph 82% 0.00 in
21:24 75.3 °F 69.4 °F 29.99 in SW 4.0 mph 7.0 mph 82% 0.00 in
21:29 75.2 °F 69.3 °F 29.99 in WSW 5.0 mph 6.0 mph 82% 0.00 in
21:34 75.2 °F 69.3 °F 29.99 in SW 4.0 mph 9.0 mph 82% 0.00 in
21:39 75.1 °F 69.2 °F 29.99 in SW 3.0 mph 9.0 mph 82% 0.00 in
21:44 75.0 °F 69.1 °F 29.99 in SW 3.0 mph 7.0 mph 82% 0.00 in
21:49 74.9 °F 69.4 °F 29.99 in SW 2.0 mph 7.0 mph 83% 0.00 in
21:54 74.9 °F 69.4 °F 29.99 in SSW 3.0 mph 7.0 mph 83% 0.00 in
21:59 74.8 °F 69.3 °F 29.99 in SW 5.0 mph 7.0 mph 83% 0.00 in
22:04 74.7 °F 69.5 °F 29.99 in SW 3.0 mph 7.0 mph 84% 0.00 in
22:09 74.8 °F 69.6 °F 29.99 in WSW 4.0 mph 7.0 mph 84% 0.00 in
22:14 74.8 °F 69.6 °F 29.99 in WSW 3.0 mph 7.0 mph 84% 0.00 in
22:19 74.7 °F 69.5 °F 30.00 in SW 4.0 mph 6.0 mph 84% 0.00 in
22:24 74.7 °F 69.5 °F 30.00 in SW 3.0 mph 7.0 mph 84% 0.00 in
22:29 74.6 °F 69.4 °F 30.00 in SW 3.0 mph 5.0 mph 84% 0.00 in
22:34 74.6 °F 69.4 °F 30.00 in SW 1.0 mph 5.0 mph 84% 0.00 in
22:39 74.5 °F 69.3 °F 30.00 in SW 2.0 mph 6.0 mph 84% 0.00 in
22:44 74.5 °F 69.3 °F 30.00 in SW 2.0 mph 6.0 mph 84% 0.00 in
22:49 74.4 °F 69.6 °F 30.00 in SW 1.0 mph 4.0 mph 85% 0.00 in
22:54 74.4 °F 69.6 °F 30.00 in WSW 2.0 mph 7.0 mph 85% 0.00 in
22:59 74.3 °F 69.5 °F 30.00 in SW 3.0 mph 5.0 mph 85% 0.00 in
23:04 74.2 °F 69.4 °F 30.00 in Calm   3.0 mph 85% 0.00 in
23:09 74.1 °F 69.3 °F 30.00 in SW 1.0 mph 3.0 mph 85% 0.00 in
23:14 74.0 °F 69.5 °F 30.00 in Calm   4.0 mph 86% 0.00 in
23:19 74.0 °F 69.2 °F 30.00 in Calm   4.0 mph 85% 0.00 in
23:24 73.7 °F 69.2 °F 30.00 in Calm   2.0 mph 86% 0.00 in
23:29 73.7 °F 69.2 °F 30.00 in Calm   3.0 mph 86% 0.00 in
23:34 73.6 °F 69.2 °F 30.00 in Calm   3.0 mph 86% 0.00 in
23:39 73.5 °F 69.1 °F 30.00 in Calm     86% 0.00 in
23:44 73.3 °F 69.2 °F 30.00 in Calm     87% 0.00 in
23:49 73.1 °F 69.0 °F 29.99 in Calm     87% 0.00 in
23:54 72.8 °F 68.7 °F 29.99 in Calm     87% 0.00 in
23:59 72.6 °F 68.8 °F 29.99 in Calm     88% 0.00 in
Buffalo, New York, USA
Compliments of Weather Underground - 2.5 mb